Find Starlink 1019

NORAD ID: 44724 Int'l Des: 2019-074 Owner: SPXS Country: US Constellation: starlink operational
LEOCIRCULAR

Live-Position

3D-Globus wird geladen...

Über Starlink 1019

Beschreibung wird geladen...

Nächste Überflüge

Passes for default location (London). Set your location on the main map for personalized predictions.

Höhenverlauf

Loading altitude history...

Zweizeiliger Elementsatz

1 44724U 19074M 26121.55291103 .00583640 17773-3 75368-3 0 9996
2 44724 53.0329 226.8667 0010697 340.7422 19.3204 16.06464796357864
Epoch: 1. Mai 2026 • Age: 5 hours

Aktueller Status

Höhe 253.5 km
Geschwindigkeit 7.76 km/s
Subsatellitenpunkt 28.99°N, 122.15°E
Startdatum 11. Nov. 2019
Alter 6.4 years
Typ internet

Technische Details

Klassifizierung Payload
Masse 260.00 kg
Trockenmasse 248.00 kg
Gesamtmasse 260.00 kg
Länge 0.20 m
Durchmesser 2.80 m
Spannweite 9.00 m
Form Box + pan
Hersteller SPXS
Bus-Typ Starlink
Phasenstatus In Orbit
Besitzer/Staat SPXS/US

Most Searched